Location: Unspecified
(0.0000°N, 0.0000°E)
Time: 00:47:09
(UTC+00:00)

deb Explorer IX - All Passes

Search period start: 20 July 2019 00:00
Search period end: 30 July 2019 00:00
Orbit: 539 x 1112 km, 38.8° (Epoch: 19 July)

Date Brightness Start Highest point End Pass type
(mag) Time Alt. Az. Time Alt. Az. Time Alt. Az.
20 Jul - 10:21:32 10° NW 10:26:51 70° NE 10:33:11 10° SE daylight
20 Jul - 12:09:51 10° W 12:14:21 21° SW 12:19:18 10° SSE daylight
20 Jul - 21:19:27 10° SSW 21:24:54 30° SE 21:29:39 10° E night (unlit)
20 Jul - 23:06:38 10° WSW 23:12:02 40° NW 23:16:38 10° NNE night (unlit)
21 Jul - 09:59:45 10° NW 10:04:54 72° NE 10:11:04 10° SE daylight
21 Jul - 11:48:10 10° W 11:52:24 20° SW 11:57:03 10° S daylight
21 Jul - 20:57:15 10° SSW 21:02:57 32° SE 21:07:56 10° E visible
21 Jul - 22:44:34 10° WSW 22:50:07 40° NW 22:54:51 10° NNE night (unlit)
22 Jul - 09:37:58 10° NW 09:42:58 74° NE 09:48:58 10° SE daylight
22 Jul - 11:26:31 10° WSW 11:30:27 19° SW 11:34:47 10° S daylight
22 Jul - 20:35:03 10° SSW 20:41:00 34° SE 20:46:11 10° ENE visible
22 Jul - 22:22:29 10° WSW 22:28:11 39° NW 22:33:03 10° NNE night (unlit)
23 Jul - 09:16:12 10° NW 09:21:03 76° NE 09:26:52 10° SE daylight
23 Jul - 11:04:53 10° WSW 11:08:31 17° SW 11:12:29 10° S daylight
23 Jul - 20:12:51 10° SSW 20:19:01 35° SE 20:24:25 10° ENE visible
23 Jul - 22:00:23 10° WSW 22:06:13 39° NW 22:11:14 10° NNE night (unlit)
24 Jul - 08:54:26 10° NW 08:59:09 79° NE 09:04:47 10° SE daylight
24 Jul - 10:43:18 10° WSW 10:46:35 16° SW 10:50:11 10° S daylight
24 Jul - 19:50:40 10° SSW 19:57:01 37° SE 20:02:38 10° ENE visible
24 Jul - 21:38:17 10° WSW 21:44:16 39° NW 21:49:25 10° NNE visible
25 Jul - 08:32:40 10° NW 08:37:16 82° NE 08:42:43 10° SE daylight
25 Jul - 10:21:45 10° WSW 10:24:41 15° SW 10:27:51 10° S daylight
25 Jul - 19:28:28 10° SSW 19:35:01 39° SE 19:40:49 10° ENE visible
25 Jul - 21:16:10 10° WSW 21:22:16 38° NW 21:27:34 10° NNE visible
26 Jul - 08:10:55 10° NW 08:15:23 85° NE 08:20:39 10° SE daylight
26 Jul - 10:00:15 10° WSW 10:02:47 14° SW 10:05:29 10° S daylight
26 Jul - 19:06:18 10° SSW 19:12:59 41° SE 19:18:59 10° ENE visible
26 Jul - 20:54:02 10° WSW 21:00:17 38° NW 21:05:44 10° NNE visible
27 Jul - 07:49:10 10° NW 07:53:31 88° NNE 07:58:36 10° SE daylight
27 Jul - 09:38:49 10° WSW 09:40:53 12° SSW 09:43:04 10° S daylight
27 Jul - 18:44:07 10° SSW 18:50:56 43° SE 18:57:07 10° ENE visible
27 Jul - 20:31:56 10° WSW 20:38:16 38° NW 20:43:51 10° NNE visible
28 Jul - 07:27:24 10° NW 07:31:40 88° SW 07:36:35 10° SE daylight
28 Jul - 09:17:33 10° SW 09:19:00 11° SSW 09:20:31 10° SSW daylight
28 Jul - 18:21:57 10° SSW 18:28:53 44° SE 18:35:14 10° ENE visible
28 Jul - 20:09:49 10° WSW 20:16:14 37° NW 20:21:58 10° NNE visible
29 Jul - 07:05:38 10° NW 07:09:49 84° SW 07:14:34 10° SE daylight
29 Jul - 08:56:55 10° SW 08:57:08 10° SSW 08:57:20 10° SSW daylight
29 Jul - 17:59:48 10° SSW 18:06:49 46° SE 18:13:19 10° ENE daylight
29 Jul - 19:47:42 10° WSW 19:54:12 37° NW 20:00:03 10° NNE visible
